• Join FlightAware (Why Join?)
  • Login
  • US Flag 
01:23AM EDT


 

Airport Tracker/Info


-or-


 

Live Flight TrackerFlight Track Log ✈ UAL4663 ✈ 21-Apr-2013 ✈ KRDU - KEWR

Flight Track Log - Related Links

Times and Time Zones

All times are in EDT time to prevent confusion due to time zone crossing. See the UAL4663 flight status page for this flight to view local times or setup timezone preferences in your user account.

Time Position Orientation Groundspeed Altitude Reporting Facility
EDT Latitude Longitude Course Direction KTS MPH feet Rate Location/Type
06:48PM 35.9242 -78.7597 27° Northeast 174 200 2,600  Level Washington Center
06:49PM 35.9897 -78.7317 19° North 228 262 4,900 1,980 Climbing Washington Center
06:51PM 36.0864 -78.7047 13° North 262 302 7,900 2,040 Climbing Washington Center
06:52PM 36.1644 -78.6742 18° North 262 302 10,200 1,680 Climbing Washington Center
06:53PM 36.2381 -78.6514 14° North 280 322 11,300 1,200 Climbing Washington Center
06:54PM 36.3369 -78.6217 14° North 312 359 12,700 1,200 Climbing Washington Center
06:55PM 36.4231 -78.5914 16° North 332 382 13,700 1,200 Climbing Washington Center
06:56PM 36.5219 -78.5592 15° North 347 399 15,100 1,380 Climbing Washington Center
06:57PM 36.6231 -78.5189 18° North 364 419 16,500 1,440 Climbing Washington Center
06:58PM 36.7328 -78.4764 17° North 370 426 18,000 1,200 Climbing Washington Center
06:59PM 36.8239 -78.4097 30° Northeast 370 426 19,000 1,260 Climbing Washington Center
07:00PM 36.9133 -78.3378 33° Northeast 370 426 20,600 1,320 Climbing Washington Center
07:01PM 37.0047 -78.2603 34° Northeast 388 447 21,700 1,020 Climbing Washington Center
07:02PM 37.0917 -78.1931 32° Northeast 404 465 22,700 1,140 Climbing Washington Center
07:03PM 37.1978 -78.1053 33° Northeast 409 471 24,000 1,140 Climbing Washington Center
07:04PM 37.2856 -78.0064 42° Northeast 409 471 25,000 480 Climbing Washington Center
07:05PM 37.3133 -77.8636 76° East 393 452 25,000  Level Washington Center
07:06PM 37.3636 -77.7344 64° Northeast 398 458 25,000  Level Washington Center
07:07PM 37.4650 -77.6719 26° Northeast 385 443 25,000  Level Washington Center
07:08PM 37.5728 -77.7011 348° North 349 402 25,000  Level Washington Center
07:09PM 37.6875 -77.7042 359° North 374 430 25,000  Level Washington Center
07:10PM 37.7911 -77.6153 34° Northeast 408 470 25,000  Level Washington Center
07:11PM 37.8908 -77.5231 36° Northeast 425 489 25,000  Level Washington Center
07:12PM 37.9903 -77.4283 37° Northeast 435 501 25,000  Level Washington Center
07:13PM 38.0897 -77.3383 35° Northeast 441 507 25,000  Level Washington Center
07:14PM 38.1806 -77.2506 37° Northeast 441 507 25,000  Level Washington Center
07:15PM 38.2964 -77.1581 32° Northeast 446 513 25,000  Level Washington Center
07:16PM 38.3972 -77.1150 19° North 427 491 25,000  Level Washington Center
07:17PM 38.5103 -77.0617 20° North 427 491 25,000  Level Washington Center
07:18PM 38.6256 -77.0081 20° North 433 498 25,000  Level Washington Center
07:19PM 38.7389 -76.9464 23° Northeast 433 498 25,000  Level Washington Center
07:20PM 38.8236 -76.8228 49° Northeast 433 498 25,000  Level Washington Center
07:21PM 38.9064 -76.6853 52° Northeast 451 519 25,000  Level Washington Center
07:22PM 38.9908 -76.5478 52° Northeast 476 548 25,000  Level Washington Center
07:23PM 39.0731 -76.4097 52° Northeast 489 563 25,000  Level Washington Center
07:24PM 39.1575 -76.2689 52° Northeast 489 563 25,000 -60 Level Washington Center
07:25PM 39.2372 -76.1464 50° Northeast 468 539 24,900  Descending Washington Center
07:26PM 39.3106 -76.0450 47° Northeast 428 493 25,000  Climbing Washington Center
07:27PM 39.3922 -75.9486 42° Northeast 394 453 25,000  Level Washington Center
07:28PM 39.4736 -75.8550 42° Northeast 384 442 25,000 -120 Level Washington Center
07:29PM 39.5572 -75.7558 42° Northeast 389 448 24,800 -1,080 Descending Washington Center
07:30PM 39.6428 -75.6561 42° Northeast 394 453 22,900 -2,100 Descending Washington Center
07:31PM 39.7239 -75.5592 43° Northeast 394 453 20,700 -2,340 Descending Washington Center
07:32PM 39.8011 -75.4644 43° Northeast 394 453 18,300 -2,220 Descending Washington Center
07:33PM 39.8800 -75.3672 43° Northeast 378 435 16,300 -2,580 Descending Washington Center
07:34PM 39.9506 -75.2831 42° Northeast 356 410 13,200 -1,860 Descending Washington Center
07:35PM 40.0131 -75.2069 43° Northeast 333 383 12,600 -1,020 Descending Washington Center
07:36PM 40.0753 -75.1306 43° Northeast 309 356 11,200 -840 Descending Washington Center
07:37PM 40.1331 -75.0542 45° Northeast 297 342 11,000 -480 Descending Washington Center
07:37PM 40.1667 -75.0000 51° Northeast 285 328 10,400 -1,320 Descending New York TRACON
07:39PM 40.2333 -74.9333 37° Northeast 280 322 8,700 -1,200 Descending New York TRACON
07:40PM 40.2833 -74.8667 45° Northeast 264 304 8,000 -600 Descending New York TRACON
07:41PM 40.3333 -74.8000 45° Northeast 260 299 7,600 -720 Descending New York TRACON
07:43PM 40.4500 -74.6833 37° Northeast 254 292 6,000 -540 Descending New York TRACON
07:45PM 40.6342 -74.6030 17° North  Level FlightAware Approximate
07:46PM 40.4333 -74.5500 17° North 204 235 5,000  Level New York TRACON
07:48PM 40.5628 -74.3601 48° Northeast  Level Estimated
07:49PM 40.3167 -74.4000 48° Northeast 185 213 4,100  Level New York TRACON
07:50PM 40.3333 -74.3667 57° Northeast 173 199 3,400 -600 Descending New York TRACON
07:51PM 40.3833 -74.3500 14° North 164 189 3,000 -240 Descending New York TRACON
07:52PM 40.4333 -74.3333 14° North 171 197 3,000  Level New York TRACON
07:53PM 40.4667 -74.3167 21° North 154 177 3,000  Level New York TRACON
07:54PM 40.5000 -74.2833 37° Northeast 156 180 3,000 -240 Level New York TRACON
07:56PM 40.5833 -74.2333 24° Northeast 154 177 2,300 -540 Descending New York TRACON
07:57PM 40.6167 -74.2167 21° North 137 158 1,500 -840 Descending New York TRACON
07:59PM 40.6833 -74.1667 22° Northeast  Level FlightAware Approximate
08:06PM 40.6925 -74.1687 22° Northeast  Level Estimated